This is the latest recevied weather packets stored in our database for station/object W0WC. If no packets are shown the sender has not sent any weather packets the latest 10 day(s).
| Time | Temp. | Humidity | Pressure | Rain* | Wind** | Luminosity | Snow |
|---|---|---|---|---|---|---|---|
| 1788015585 | 29.44° C | 48% | 1020.1 hPa | 0 mm | - | 398 W/m² | - |
| 1788015285 | 28.89° C | 49% | 1020 hPa | 0 mm | - | 354 W/m² | - |
| 1788014983 | 28.89° C | 50% | 1019.9 hPa | 0 mm | - | 366 W/m² | - |
| 1788014683 | 28.89° C | 50% | 1019.8 hPa | 0 mm | - | 331 W/m² | - |
| 1788014378 | 28.33° C | 51% | 1019.9 hPa | 0 mm | - | 345 W/m² | - |
| 1788014074 | 27.78° C | 52% | 1019.8 hPa | 0 mm | - | 333 W/m² | - |
| 1788013773 | 27.78° C | 54% | 1019.8 hPa | 0 mm | - | 311 W/m² | - |
| 1788013468 | 27.78° C | 54% | 1020 hPa | 0 mm | - | 268 W/m² | - |
| 1788013167 | 27.22° C | 55% | 1019.9 hPa | 0 mm | - | 275 W/m² | - |
| 1788012866 | 26.67° C | 56% | 1020.1 hPa | 0 mm | - | 299 W/m² | - |
| 1788012561 | 26.67° C | 57% | 1019.8 hPa | 0 mm | - | 253 W/m² | - |
| 1788012257 | 26.11° C | 58% | 1019.9 hPa | 0 mm | - | 256 W/m² | - |
| 1788011955 | 25.56° C | 58% | 1019.9 hPa | 0 mm | - | 129 W/m² | - |
| 1788011654 | 25.56° C | 59% | 1019.9 hPa | 0 mm | - | 94 W/m² | - |
| 1788011350 | 25.56° C | 59% | 1019.9 hPa | 0 mm | - | 59 W/m² | - |
| 1788011049 | 25° C | 60% | 1020 hPa | 0 mm | - | 93 W/m² | - |
| 1788010753 | 25° C | 60% | 1019.8 hPa | 0 mm | - | 58 W/m² | - |
| 1788010442 | 24.44° C | 61% | 1020 hPa | 0 mm | - | 167 W/m² | - |
| 1788010138 | 24.44° C | 61% | 1020 hPa | 0 mm | - | 153 W/m² | - |
| 1788009832 | 23.89° C | 62% | 1020 hPa | 0 mm | - | 138 W/m² | - |
| 1788009530 | 23.89° C | 61% | 1020 hPa | 0 mm | - | 126 W/m² | - |
| 1788009225 | 23.89° C | 62% | 1019.9 hPa | 0 mm | - | 111 W/m² | - |
| 1788008920 | 23.33° C | 62% | 1019.8 hPa | 0 mm | - | 95 W/m² | - |
| 1788008616 | 23.33° C | 63% | 1019.9 hPa | 0 mm | - | 87 W/m² | - |
| 1788008314 | 23.33° C | 63% | 1019.6 hPa | 0 mm | - | 79 W/m² | - |
* Rain latest hour (hover to see other rain measurements)
** Current wind speed in m/s (hover to see current wind gust speed)